Weather History for Concordia, KS

Change the Weather History Date:

Saturday, January 4, 2014

  Actual Average Record
Temperature  
Mean Temperature 26 °F 28 °F  
Max Temperature 36 °F 38 °F 68 °F (1916)
Min Temperature 16 °F 19 °F -14 °F (1947)
Degree Days  
Heating Degree Days 39 37  
Month to date heating degree days 189 148  
Since 1 July heating degree days 2416 2325  
Cooling Degree Days 0 0  
Month to date cooling degree days 0 0  
Year to date cooling degree days 0 0  
Moisture  
Dew Point 17 °F    
Average Humidity 76    
Maximum Humidity 84    
Minimum Humidity 67    
Precipitation  
Precipitation T in 0.01 in 0.51 in (2005)
Month to date precipitation 0.16 0.06  
Year to date precipitation 0.16 0.06  
Snow  
Snow T in 0.10 in 2.90 in (1977)
Month to date snowfall 2.0 0.6  
Year to date snowfall 2.0 0.6  
Since 1 July snowfall 8.3 7.1  
Snow Depth T in    
Sea Level Pressure  
Sea Level Pressure 29.97 in    
Wind  
Wind Speed 15 mph (NNE)    
Max Wind Speed 28 mph    
Max Gust Speed 35 mph    
Visibility 9 miles    
Events Snow    
T = Trace of Precipitation, MM = Missing Value Source: NWS Daily Summary

Daily Weather History Graph

Daily Weather History Graph

Search for Another Location

Airport:

Trip Planner

Search our weather history database for the weather conditions in past years. The results will help you decide how hot, cold, wet, or windy it might be!

Date:

Astronomy

Jan. 04, 2014 Rise Set
Actual Time 7:51 AM CST 5:20 PM CST
Civil Twilight 7:21 AM CST 5:50 PM CST
Nautical Twilight 6:47 AM CST 6:23 PM CST
Astronomical Twilight 6:15 AM CST 6:56 PM CST
Moon 9:58 AM CST (1/4) 9:40 PM CST (1/4)
Length of Visible Light 10h 28m
Length of Day
9h 28m
Waxing Crescent, 15% of the Moon is Illuminated
Jan 4
Waxing Crescent
Jan 7
First Quarter
Jan 15
Full
Jan 23
Last Quarter
Jan 30
New

Hourly Weather History & Observations

Time (CST) Temp. Windchill Dew Point Humidity Pressure Visibility Wind Dir Wind Speed Gust Speed Precip Events Conditions
12:55 AM 32.0 °F 27.5 °F 24.1 °F 73% 29.67 in 10.0 mi SE 4.6 mph - N/A   Clear
1:55 AM 28.9 °F - 23.0 °F 78% 29.69 in 10.0 mi Calm Calm - N/A   Clear
2:55 AM 26.1 °F 20.5 °F 21.9 °F 84% 29.70 in 10.0 mi SE 4.6 mph - N/A   Clear
3:55 AM 28.9 °F - 23.0 °F 78% 29.72 in 10.0 mi Calm Calm - N/A   Clear
4:55 AM 26.1 °F - 21.9 °F 84% 29.73 in 10.0 mi Calm Calm - N/A   Clear
5:55 AM 27.0 °F - 23.0 °F 85% 29.77 in 10.0 mi Calm Calm - N/A   Clear
6:55 AM 32.0 °F 22.5 °F 26.1 °F 79% 29.82 in 10.0 mi North 12.7 mph - N/A   Mostly Cloudy
7:55 AM 35.1 °F 24.5 °F 28.9 °F 78% 29.84 in 10.0 mi North 18.4 mph 24.2 mph N/A   Overcast
8:21 AM 32.0 °F 18.6 °F 25.0 °F 75% 29.83 in 10.0 mi North 25.3 mph 33.4 mph N/A   Overcast
8:28 AM 30.9 °F 18.7 °F 25.0 °F 79% 29.84 in 10.0 mi North 19.6 mph 33.4 mph N/A   Overcast
8:55 AM 30.0 °F 17.2 °F 23.0 °F 75% 29.88 in 10.0 mi North 20.7 mph 29.9 mph N/A   Mostly Cloudy
9:48 AM 28.0 °F 15.7 °F 21.9 °F 78% 29.90 in 10.0 mi North 17.3 mph 33.4 mph N/A   Overcast
9:55 AM 28.0 °F 14.3 °F 21.9 °F 78% 29.95 in 10.0 mi North 21.9 mph 29.9 mph N/A   Overcast
10:24 AM 26.1 °F 12.0 °F 18.0 °F 71% 29.96 in 10.0 mi North 20.7 mph 29.9 mph N/A   Overcast
10:55 AM 24.1 °F 8.3 °F 16.0 °F 71% 30.02 in 10.0 mi North 24.2 mph 33.4 mph N/A   Overcast
11:55 AM 24.1 °F 8.3 °F 16.0 °F 71% 30.00 in 10.0 mi NNE 24.2 mph 33.4 mph N/A   Overcast
12:55 PM 23.0 °F 6.9 °F 15.1 °F 72% 29.99 in 10.0 mi North 24.2 mph 29.9 mph N/A   Overcast
1:55 PM 23.0 °F 7.2 °F 14.0 °F 68% 29.99 in 10.0 mi North 23.0 mph 27.6 mph N/A   Overcast
2:55 PM 21.0 °F 5.0 °F 12.9 °F 71% 30.04 in 4.0 mi North 21.9 mph 28.8 mph 0.00 in Snow Light Snow
3:03 PM 21.0 °F 5.7 °F 14.0 °F 74% 29.98 in 1.8 mi North 19.6 mph 26.5 mph 0.00 in Snow Light Snow
3:11 PM 19.9 °F 2.8 °F 14.0 °F 78% 29.99 in 1.5 mi North 24.2 mph 31.1 mph 0.00 in Snow Light Snow
3:17 PM 19.9 °F 3.2 °F 12.9 °F 74% 29.99 in 2.0 mi North 23.0 mph 34.5 mph 0.00 in Snow Light Snow
3:33 PM 21.0 °F 7.1 °F 12.0 °F 68% 29.99 in 3.0 mi North 16.1 mph 29.9 mph 0.00 in Snow Light Snow
3:55 PM 21.0 °F 5.0 °F 12.0 °F 68% 30.05 in 10.0 mi North 21.9 mph - 0.00 in   Overcast
4:55 PM 19.9 °F 4.3 °F 10.9 °F 68% 30.07 in 10.0 mi North 19.6 mph - N/A   Overcast
5:55 PM 19.9 °F 5.2 °F 10.9 °F 68% 30.11 in 10.0 mi NNE 17.3 mph - N/A   Overcast
6:55 PM 19.9 °F 6.7 °F 10.9 °F 68% 30.14 in 10.0 mi NNE 13.8 mph - N/A   Overcast
7:55 PM 19.9 °F 8.6 °F 12.0 °F 71% 30.17 in 10.0 mi North 10.4 mph - N/A   Overcast
8:55 PM 19.9 °F 4.8 °F 12.0 °F 71% 30.19 in 9.0 mi North 18.4 mph 26.5 mph 0.00 in   Overcast
9:55 PM 19.0 °F 2.7 °F 10.0 °F 68% 30.20 in 10.0 mi North 20.7 mph 29.9 mph N/A   Overcast
10:55 PM 18.0 °F 0.9 °F 9.0 °F 68% 30.21 in 10.0 mi North 21.9 mph 29.9 mph N/A   Overcast
11:55 PM 16.0 °F 1.7 °F 8.1 °F 71% 30.22 in 10.0 mi North 13.8 mph - N/A   Overcast